This is the latest recevied weather packets stored in our database for station/object BG4WDV-11. If no packets are shown the sender has not sent any weather packets the latest 10 day(s).
| Time | Temp. | Humidity | Pressure | Rain* | Wind** | Luminosity | Snow |
|---|---|---|---|---|---|---|---|
| 1777517761 | 21.11° C | 61% | 1016.7 hPa | 0 mm | - | - | - |
| 1777517701 | 21.11° C | 61% | 1016.6 hPa | 0 mm | - | - | - |
| 1777517641 | 21.11° C | 61% | 1016.7 hPa | 0 mm | - | - | - |
| 1777517521 | 20.56° C | 61% | 1016.7 hPa | 0 mm | - | - | - |
| 1777517461 | 20.56° C | 61% | 1016.7 hPa | 0 mm | - | - | - |
| 1777517401 | 20.56° C | 61% | 1016.9 hPa | 0 mm | - | - | - |
| 1777517341 | 21.11° C | 61% | 1016.9 hPa | 0 mm | - | - | - |
| 1777517281 | 21.11° C | 61% | 1016.9 hPa | 0 mm | - | - | - |
| 1777517221 | 21.11° C | 63% | 1016.8 hPa | 0 mm | - | - | - |
| 1777517161 | 20.56° C | 62% | 1016.9 hPa | 0 mm | - | - | - |
| 1777517101 | 20.56° C | 62% | 1016.8 hPa | 0 mm | - | - | - |
| 1777517041 | 20.56° C | 60% | 1016.9 hPa | 0 mm | - | - | - |
| 1777516981 | 21.11° C | 59% | 1016.9 hPa | 0 mm | - | - | - |
| 1777516921 | 21.11° C | 59% | 1016.9 hPa | 0 mm | - | - | - |
| 1777516861 | 21.67° C | 62% | 1016.9 hPa | 0 mm | - | - | - |
| 1777516801 | 21.67° C | 62% | 1016.9 hPa | 0 mm | - | - | - |
| 1777516741 | 21.67° C | 63% | 1017.1 hPa | 0 mm | - | - | - |
| 1777516681 | 21.11° C | 63% | 1016.8 hPa | 0 mm | - | - | - |
| 1777516621 | 21.11° C | 64% | 1016.8 hPa | 0 mm | - | - | - |
| 1777516561 | 21.11° C | 64% | 1016.9 hPa | 0 mm | - | - | - |
| 1777516501 | 20.56° C | 64% | 1016.8 hPa | 0 mm | - | - | - |
| 1777516441 | 20.56° C | 65% | 1016.9 hPa | 0 mm | - | - | - |
| 1777516381 | 20.56° C | 65% | 1016.8 hPa | 0 mm | - | - | - |
| 1777516321 | 20.56° C | 64% | 1016.9 hPa | 0 mm | - | - | - |
| 1777516261 | 20.56° C | 63% | 1016.8 hPa | 0 mm | - | - | - |
* Rain latest hour (hover to see other rain measurements)
** Current wind speed in m/s (hover to see current wind gust speed)